星链-31655 (STARLINK-31655 )

导读

STARLINK-31655是美国SpaceX星链互联网卫星星座的一员,于2024年3月19日发射升空。星链项目旨在构建全球覆盖的低轨卫星互联网网络,为全球偏远地区、海洋等缺乏地面网络覆盖的区域提供高速互联网接入服务,该卫星加入星座后进一步扩充了星链的服务能力与覆盖范围,支撑星链系统的持续运营与服务拓展。

Basic Information
目录编号:
59257
目录名称:
STARLINK-31655
国际标识:
2024-050D
轨道中心:
EARTH
卫星名称:
星链-31655
卫星全名:
星链-31655 (STARLINK-31655 )
卫星状态:
已陨落 最后检测时间 2026-02-07
发射日期:
2024-03-19 UTC
国别 :
美国 (US)
星等 :
--
Orbit Information
数据来源 国际轨道数据
星历时间: 2026-02-07T09:41:19+0800
轨道信息已过期131天
半长轴: 6577.031km
偏心率: 0.0006541
轨道倾角: 53.119°
近地点辐角 234.952°
升交点赤经 260.892°
平近点角 125.091°
近地点: 194.591km
远地点: 203.197km
周期: 88.472分钟
每日圈数: 16.276386
Detailed Information
固有亮度:
5
最大亮度:
0.3
卫星平台:
Starlink v2.0 mini
覆盖范围:
全球
运营商:
太空探索技术公司
运营商所在国:
美国
制造商(研发单位):
太空探索技术公司
制造商所在国:
美国
使用方式:
暂无
Satellite Introduction
星链(Starlink)计划是由太空探索技术公司(SpaceX)提出的一个巨型低轨卫星互联网星座项目,计划在2019年至2024年间在太空搭建由约1.2万颗卫星组成的“星链”网络,其中1584颗将部署在地球上空550千米处的近地轨道,并从2020年开始工作。该卫星仍在工作。